STARLINK-36722, 67917

Orbit data source: Space-Track

STARLINK-36722, 67917 is a payload satellite owned by SpaceX/Seattle (US) in LEO that was launched on Sun, 22 Feb 2026 UTC via an FALCON 9 launch vehicle from the Air Force Eastern Test Range (AFETR). Payload-class satellites include a variety of spacecraft equipped with specific instruments for various scientific and technological missions. These include communications satellites like Starlink; space stations such as the ISS; scientific satellites like the Hubble; Earth observation satellites from companies like Planet Labs, Umbra, and HawkEye 360; GPS; miniature CubeSats for education and research; and military/defense satellites.

Not visible in the next 10 days
Identifier
67917, 2026-036P
Orbit
LEO
Country
Flag of USUS
Related business
Manufacturer
SpaceX/Seattle
Mission
Operational spacecraft
Bus & Motor
STARLINK V2MO, Unknown motor
Mass
575 kg wet, ~530 kg dry
Launch date (UTC)
2026-02-22 (3 weeks ago)
Launch vehicle
FALCON 9
Launch site
Air Force Eastern Test Range (AFETR)
Object type
Payload
Rocket body
Debris
Shape & HBR
Unknown
Radar Cross Section
RCS unknown

Expand to show TLE details & history
Last TLE update: 12 hours ago

TLE from 12 hours ago
0 STARLINK-36722
1 67917U 26036P   26071.85877037  .00153018  00000-0  71414-3 0  9996
2 67917  42.9987 230.2473 0001817 289.8999  70.1677 15.82084735  4176
Epoch: 2026-03-12T20:36Z
TLE epoch observation values (Epoch: 2026-03-12T20:36:37.759Z)
Latitude
-0.00003°
Longitude
110.58732°
Altitude
323.903 km
Speed
7.716 km/s
True Right ascension
15h 20m 59s
True Declination
0° 00' 00"
Sunlit
Object was in full shadow at epoch
Visualization orbit readout
Latitude
Unknown
Longitude
Unknown
Altitude
Unknown
Speed
Unknown
Apparent Right ascension
Unknown
Apparent Declination
Unknown
Sunlit
N/A
Visualization observer readout
Local Sidereal Time
13:06:27
Azimuth
Unknown
Elevation
Unknown
Doppler factor
Unknown
Orbital elements
Apogee altitude
327.755 km
Perigee altitude
325.319 km
Semi-major axis
6,704.674 km
Eccentricity
0.00018
Inclination
42.9987°
RAAN
230.2473°
Arg. of periapsis
289.8999°
True anomaly
70.18729°
Mean anomaly
70.1677°
Eccentric anomaly
70.17749°
Mean motion
3.95345 °/min
Orbital period
91.06 mins
BSTAR
0.00071414
Loading maneuver chart data...
Computing Atmospheric mass density...
Loading historical data...
Loading historical data...
Loading historical data...
Loading historical data...
Loading historical data...
Loading historical data...
Loading historical data...

Documentation

Showing up to 5 results
|